Lake Worth, FL (33460)

4:42 PM EDT on August 31, 2015 (GMT -0400)
Lake Clarke Shores - Caribbean Rd. East | | Change Station
CLOSE
Current Station
Personal Weather Station
Location: Lake Clarke Shores, FL
Elevation: 16 ft
Nearby Weather Stations

Elev 16 ft 26.63 °N, 80.07 °W | Updated 1 second ago

Partly Cloudy
Partly Cloudy
92.1 °F
Feels Like 108 °F
N
7.8
Wind Variable Wind from WSW
Gusts 10.1 mph

Today
High -- | Low -- °F
--% Chance of Precip.
Yesterday
High -- | Low -- °F
Precip. -- in
6:59 AM 7:41 PM
Waning Gibbous, 94% visible
Pressure 30.02 in
Visibility 10.0 miles
Clouds Scattered Clouds 3300 ft
Scattered Clouds 25000 ft
Heat Index 108 °F
Dew Point 78 °F
Humidity 64%
Rainfall 1.99 in
Snow Depth Not available.
UV 7 out of 12
Pollen .60 out of 12
Air Quality Not available.
Flu Activity Not available.
METAR KPBI 311953Z 14013KT 10SM SCT033 SCT250 32/24 A3002 RMK AO2 SLP166 T03170239 $
Pressure 30.02 in
Visibility 10.0 miles
Clouds Scattered Clouds 3300 ft
Scattered Clouds 25000 ft
Heat Index 108 °F
Dew Point 78 °F
Humidity 64%
Rainfall 1.99 in
Snow Depth Not available.
UV 7 out of 12
Pollen .60 out of 12
Air Quality Not available.
Flu Activity Not available.
METAR KPBI 311953Z 14013KT 10SM SCT033 SCT250 32/24 A3002 RMK AO2 SLP166 T03170239 $

10-Day Weather Forecast

×

Almanac

Astronomy

Aug. 31, 2015 Rise Set
Actual Time
Civil Twilight
Nautical Twilight
Astronomical Twilight
Moon
Length of Visible Light
Length of Day
Tomorrow will be .
, % of the Moon is Illuminated

Today's Extremes

State Highs State Lows

Community

WunderPhotos

Upload Photos

1,851,356 photos uploaded!

WunderBlogs® & News

Nearby

Air Quality

  Air Quality AQ Index Pollutant
Not available.

Snow Depth

Station Depth Elevation

Earthquake Activity

City Distance Mag. Time & Date
Minimum magnitude displayed is 2.5.

Coastal Water Temperatures

Place Temperature

Stations

Nearby Weather Stations

Station Location Temp. Windchill Dew Point Humidity Wind Precip. Elev Updated Type